Погода в Южном

Россия / Республика Калмыкия     46°06′03″N   42°01′11″E
темп.,
°C
ветер,
м/с
пор.,
м/с
влажн.,
%
обл.,
%
осадки,
мм/ч
давл.,
гПа
погр.,
м
12 апреля, пн
пн1200:00+10св2288100 0.0 101711
03:00+10з3388100 0.0 101853
06:00+8з3696100 0.0 1019140
09:00+12з4582100 0.0 1020465
12:00+12зсз3483100 0.8 1020651
15:00+12з4490100 1.9 1021404
18:00+10з4792100 0.0 1022278
21:00+9з3595100 0.0 1023187
13 апреля, вт
вт1300:00+8з239684 0.0 102365
03:00+9зюз2496100 0.0 1022131
06:00+9з239694 0.0 1022106
09:00+11з228799 0.0 1023364
12:00+12ссз2282100 0.0 1022586
15:00+12всв1290100 0.2 1022179
18:00+11з3493100 0.1 1021119
21:00+10з249794 0.1 1021108
14 апреля, ср
ср1400:00+9ссз2298100 0.0 102030
03:00+8с2296100 0.0 101919
06:00+8св229189 0.0 101826
09:00+13в225385 0.0 1017366
12:00+17всв1243100 0.0 1016984
15:00+15ююв4655100 0.2 1017820
18:00+14ю1170100 0.5 101624
21:00+11юз3484100 0.5 101676
15 апреля, чт
чт1500:00+11зюз349166 0.1 1016112
03:00+9юз339559 0.1 101652
06:00+8зюз369465 0.0 1016129
09:00+12зюз347811 0.0 1016375
12:00+17зюз235842 0.1 10151416
15:00+19зюз23461 0.1 10141701
18:00+17з2256100 0.0 101414
21:00+13з1161100 0.0 101510
16 апреля, пт
пт1600:00+12вюв116880 0.0 101410
03:00+13юз2367100 0.0 101541
06:00+11зсз61096100 0.6 1016353
09:00+11юз4691100 1.1 1017394
12:00+16зюз5657100 0.3 10171565
15:00+17з5650100 0.3 10171837
18:00+14зсз3468100 0.0 1017152
21:00+10зюз3480100 0.0 101851